(461017) = 2010 EL7 = 2014 WC399

Discovered at Kitt Peak on 2007-06-08 by Spacewatch.

Orbit

Orbit type: Main Belt

Note: WebGL enabled browser required.

epoch2023-02-25.0
epoch JD2460000.5
perihelion date2019-12-28.96158
perihelion JD2458846.46158
argument of perihelion (°)294.78408
ascending node (°)81.88950
inclination (°)16.78855
eccentricity0.1365497
perihelion distance (AU)2.6575390
Tisserand w.r.t. Jupiter3.1
ΔV w.r.t. Earth (km/sec)11.4
semimajor axis (AU)3.0778134
mean anomaly (°)210.64962
mean daily motion (°/day)0.18253260
aphelion distance (AU)3.498
period (years)5.4
P-vector [x]0.91964498
P-vector [y]0.37256361
P-vector [z]-0.12429593
Q-vector [x]-0.26923012
Q-vector [y]0.82843002
Q-vector [z]0.49114035
absolute magnitude16.3
phase slope0.15
uncertainty0
referenceMPO 745323
observations used140
oppositions10
arc length (days)5855
first opposition used2007
last opposition used2023
residual rms (arc-secs)0.71
perturbers coarse indicatorM-v
perturbers precise indicator003Ek
first observation date used2007-06-08.0
last observation date used2023-06-19.0
computer nameMPCLINUX
JD of orbit computation2457434.278181
perihelion JD uncertainty (days)1.0762E-04
argument of perihelion uncertainty (°)2.7646E-05
ascending node uncertainty (°)1.7887E-05
inclination uncertainty (°)6.5688E-06
eccentricity uncertainty 8.6482E-08
perihelion distance uncertainty (AU)2.3929E-07
Minimum Orbit Intersection Distances (in AU)
for orbit epoch: 2460000.5, reference: E2023-M63
Mercury2.31678
Venus1.95453
Earth1.71055
Mars1.26879
Jupiter2.04828
Saturn6.07164
Uranus15.1482
Neptune27.1717

Observations

146 total observations over interval: 2007 06 08.33901 – 2023 06 19.379990
These data are available for download (format description).

